Regional Weather Roundup
Issued by NWS Mobile, AL

Home | Current Version | Previous Version | Text Only | Print | Product List | Glossary On
Versions: 1 2 3 4 5 6 7 8 9 10 11 12 13 14 15 16 17 18 19 20 21 22 23 24 25 26 27
000
ASUS44 KMOB 190412
RWRMOB
REGIONAL WEATHER ROUNDUP
NATIONAL WEATHER SERVICE MOBILE AL
1000 PM CST SUN FEB 18 2018

NOTE: "FAIR" INDICATES FEW OR NO CLOUDS BELOW 12,000 FEET WITH NO
      SIGNIFICANT WEATHER AND/OR OBSTRUCTIONS TO VISIBILITY.

  * THESE STATIONS ARE PART OF THE UNIVERSITY OF SOUTH ALABAMA
    MESONET AND ARE NOT UNDER NWS OR FAA QUALITY CONTROL.

ALZ061>064-190500-
COASTAL ALABAMA

CITY           SKY/WX    TMP DP  RH WIND       PRES   REMARKS
MOBILE REG APT CLOUDY    66  64  93 SE8       30.20S FOG
BROOKLEY FIELD FOG       63  63 100 SE5       30.20F VSB 1/4
USA CAMPUS*    NOT AVBL
DOG RIVER*     NOT AVBL


CITY           SKY/WX    TMP DP  RH WIND       PRES   REMARKS
GULF SHORES    CLOUDY    68  68 100 SE9       30.20S

$$

ALZ051>060-190500-
INTERIOR SOUTHWEST AND SOUTH CENTRAL ALABAMA

CITY           SKY/WX    TMP DP  RH WIND       PRES   REMARKS
GREENVILLE     FAIR      64  59  83 CALM      30.20F
EVERGREEN      FAIR      65  57  75 CALM      30.20F
ATMORE*          N/A     64  64 100 SE3       30.97F
ANDALUSIA/OPP  CLOUDY    65  59  81 CALM      30.21S
ANDALUSIA*       N/A     63  59  88 SE2       30.22S
FLORALA APT    NOT AVBL
FLORALA*       NOT AVBL

$$

FLZ001>006-190500-
WESTERN FLORIDA PANHANDLE

CITY           SKY/WX    TMP DP  RH WIND       PRES   REMARKS
PENSACOLA      MOCLDY    69  67  93 SE5       30.20S
NAS PENSACOLA  FAIR      68  66  93 MISG      30.20S
MILTON         MOCLDY    64  64 100 CALM      30.21S
WHTNG S FIELD  CLOUDY    66  65  96 SE3       30.21S


CITY           SKY/WX    TMP DP  RH WIND       PRES   REMARKS
JAY*           NOT AVBL
DUKE FIELD     FAIR      63  62  96 S5        30.21F
CRESTVIEW      FAIR      60  58  92 CALM      30.23S
VALPARAISO     CLEAR     68  68 100 SE5       30.20F
DESTIN         FAIR      72  67  84 SE6       30.21S

$$

MSZ076-079-190500-
INTERIOR SOUTHEAST MISSISSIPPI

CITY           SKY/WX    TMP DP  RH WIND       PRES   REMARKS
LEAKESVILLE*   NOT AVBL
AGRICOLA*      NOT AVBL

$$

MARINE OBSERVATIONS

STATION/POSITION TIME  TEMP    WIND        PRES    WAVE
                       AIR SEA DIR/SP/G            HT/PER
                 (UTC) (F)     (DEG/KT/KT) (MB)    (FT/S)
PETIT BOIS ISLND 0342   65     100/  6/  7 1022.8F
KATRINA CUT      0330          100/  6     1022.7F
CEDAR POINT      0330   65      80/  2     1022.7S
E DAUPHIN ISLAND 0400   67     120/  9/ 10 1022.1F
MIDDLE BAY LIGHT 0330   63        CALM     1022.4F
USCG MOBILE BAY  0342   61 63  140/  2/  5 1022.5F
STATE DOCKS      0342   62 59              1022.4F
MEAHER PARK      0330   63        CALM     1022.7R
WEEKS BAY        0245   67                 1022.0S
FORT MORGAN      0342   69     140/  9/ 10   N/A
12 S ORANGE BCH  NOT AVBL
PENSACOLA BAY    0342   70 71   CALM  /  2 1022.9F
64 S DAUPHIN ISL 0350   74     130/ 10/ 14 1022.3F   2/ 3
67 S FORT MORGAN 0330   73                 1022.4S

$$

SELECTED LOCATIONS ACROSS THE REGION

CITY           SKY/WX    TMP DP  RH WIND       PRES   REMARKS
NEW ORLEANS    FAIR      69  67  93 SE7       30.14F
GULFPORT       MOCLDY    67  66  97 E6        30.16F
PASCAGOULA AP  FOG       64  63  96 SE3       30.18F VSB 1
PASCAGOULA*      N/A     48  48 100 CALM        N/A
HATTIESBURG    FAIR      63  61  93 SE3       30.17S
LAUREL         FAIR      62  59  90 S6        30.16F
MERIDIAN       FAIR      55  53  93 CALM      30.16F
JACKSON        FAIR      61  58  90 SE10      30.10F
MONTGOMERY     MOCLDY    63  59  87 CALM      30.21S
TROY           FAIR      62  61  96 CALM      30.22F
ASHFORD*         N/A     63  59  88 SE2       30.22S
DOTHAN         MOCLDY    66  61  84 S5        30.27R
PANAMA CITY    FAIR      67  65  93 CALM      30.22S

$$





USA.gov is the U.S. government's official web portal to all federal, state and local government web resources and services.